Dewpoint
59 59 58 58 58 58 59 59 59 59 60 60 60 60 61 62 61 56 50 54 59 75 75 64 65 63 63 67 56 61 61 46 45 45 46 45 44 47 50 51 54 57 57 58 60
59 58 57 58 58 58 58 59 59 59 59 59 60 60 62 62 50 36 62 76 75 76 65 61 60 58 57 63 66 61 55 42 45 46 47 45 46 48 48 49 54 56 58 58 59
58 58 57 57 57 58 58 58 58 58 59 59 59 60 62 60 41 39 74 77 75 74 64 59 56 62 59 60 59 53 44 45 46 48 48 47 47 47 46 48 52 55 55 56 57
58 58 58 58 57 57 57 58 58 58 58 59 59 60 62 48 33 49 74 77 76 67 66 62 52 63 60 58 50 43 44 44 47 49 49 48 47 46 46 48 52 54 55 55 55
58 57 57 57 57 57 57 57 57 57 58 58 59 60 51 35 30 64 74 74 67 67 66 53 47 45 43 45 39 38 43 43 48 49 50 50 48 47 46 49 51 53 54 54 53
57 57 57 57 57 57 57 57 57 57 58 58 59 61 47 23 57 64 57 64 61 63 58 49 46 44 43 39 36 39 43 41 46 48 49 51 50 51 48 48 51 52 52 52 52
57 57 57 57 57 57 57 57 57 57 58 58 59 55 36 27 38 55 59 60 61 54 50 48 45 43 41 38 38 43 42 49 44 48 51 46 50 51 50 48 50 51 52 53 53
57 57 57 57 57 57 57 57 57 57 58 59 60 50 33 25 32 44 54 55 56 53 51 51 48 43 38 39 40 47 48 44 42 48 50 50 50 51 52 49 49 51 52 53 53
57 57 57 57 57 57 57 56 57 59 59 60 52 42 21 38 17 34 47 48 50 50 50 49 44 38 34 35 42 47 45 43 37 41 47 50 54 54 51 49 49 50 51 52 53
56 56 56 57 57 57 56 56 57 59 56 49 44 34 23 16 17 29 46 45 39 43 41 41 39 35 30 30 38 39 43 43 32 27 29 35 46 46 48 49 49 50 51 52 52
57 56 57 57 57 56 53 49 43 41 41 37 18 21 9 16 20 27 42 41 35 30 30 32 30 25 26 25 26 36 27 28 38 36 31 31 35 46 46 48 49 49 50 51 51
56 56 57 57 56 55 51 43 32 30 32 28 7 12 14 16 14 20 35 34 29 24 23 23 21 19 16 21 18 19 22 31 41 40 38 26 30 43 47 44 48 50 50 51 51
56 55 56 56 55 50 42 37 32 33 26 11 14 9 11 11 14 12 28 29 25 18 15 13 13 11 9 8 10 12 16 19 36 38 37 24 37 46 51 48 43 46 49 51 52
55 55 56 55 48 40 38 34 34 33 26 12 9 13 12 14 11 12 14 21 16 12 9 9 7 6 5 4 4 4 7 9 13 19 24 25 33 47 48 46 45 43 45 48 51
55 55 55 53 46 36 35 34 35 32 22 11 12 12 13 13 13 10 9 15 10 10 8 6 6 7 6 6 10 10 10 11 12 16 19 25 23 43 47 44 47 41 44 44 51
55 54 53 49 46 35 35 34 35 28 17 13 9 8 7 8 4 10 9 9 11 9 8 7 6 7 3 5 8 13 12 12 11 11 16 17 21 36 42 43 34 30 35 43 46
54 53 51 47 39 37 37 36 32 25 17 16 11 8 10 7 5 5 7 6 7 10 10 10 7 4 5 8 14 16 11 11 13 12 11 16 25 34 33 31 30 31 30 32 43
52 52 48 39 38 40 39 35 34 13 15 14 13 10 8 6 8 6 9 9 11 7 5 9 7 8 10 16 17 17 10 11 19 13 11 17 20 24 25 32 34 36 37 39 38
52 48 44 45 42 40 37 32 26 19 16 14 15 15 14 10 13 8 10 15 18 16 17 20 16 18 16 15 16 14 15 12 10 6 5 6 13 21 27 31 36 42 44 47 45
48 45 42 38 38 38 34 32 23 19 17 15 18 20 20 16 14 13 17 19 18 17 18 19 20 19 18 20 20 17 18 11 10 18 16 18 28 30 34 33 37 45 48 54 52
47 40 37 33 33 31 29 27 23 21 20 19 20 19 18 20 19 19 19 24 22 17 21 17 19 21 21 20 19 18 14 9 9 15 14 9 23 30 37 38 39 45 54 55 53
42 35 35 32 27 30 25 25 31 19 23 21 20 22 22 23 22 21 20 26 25 25 21 22 21 19 15 16 18 17 10 7 11 18 15 17 34 34 34 41 46 51 54 57 58
43 36 33 26 22 24 27 23 20 21 22 24 23 22 23 22 23 24 23 25 24 24 29 26 23 16 16 17 20 20 17 14 12 11 19 14 27 35 37 44 47 50 56 55 48
46 33 31 30 27 24 25 23 22 22 20 23 25 26 26 26 25 25 23 23 23 23 52 35 15 14 14 20 21 22 21 19 14 14 14 15 29 38 39 39 46 48 52 56 53
47 32 34 32 29 30 27 25 23 23 24 24 26 25 26 27 28 27 25 24 23 45 30 24 21 22 21 19 19 19 17 15 15 16 16 16 17 21 23 30 44 45 49 53 57
42 41 40 37 31 29 30 26 23 23 24 24 25 24 26 27 27 27 28 28 27 27 26 24 26 26 24 22 21 19 20 19 17 13 10 10 13 17 17 34 40 47 46 50 55
48 46 44 39 30 28 26 28 29 28 29 27 26 27 26 28 29 28 26 24 22 24 24 23 22 26 25 25 24 23 22 17 15 14 12 13 16 16 18 24 32 43 52 51 53
Lifted_Index
15 16 16 16 16 15 15 14 14 14 13 13 13 12 11 10 8 5 3 2 0 -1 -3 -3 -4 -4 -3 -2 -2 -3 -3 -2 -2 -1 -1 0 1 0 -0 -0 -1 -1 -0 1 1
15 16 16 16 16 15 15 14 14 14 14 13 13 12 11 9 7 4 2 0 -1 -2 -3 -3 -4 -4 -2 -1 -2 -3 -3 -2 -1 -1 -1 -0 0 0 0 -0 -1 -1 -0 1 2
15 16 16 16 15 15 15 14 14 14 14 13 13 12 11 9 5 3 1 -1 -2 -3 -4 -4 -3 -3 -2 -1 -3 -4 -3 -2 -1 -2 -2 -1 -1 -0 -1 -1 -1 -0 1 1 2
15 15 16 15 15 15 14 14 14 14 13 13 12 11 10 8 4 1 -1 -2 -3 -4 -4 -4 -3 -2 -2 -2 -2 -2 -2 -1 -2 -2 -2 -2 -2 -2 -2 -1 -1 0 1 1 2
15 15 15 15 15 15 14 14 14 14 13 13 12 11 9 6 3 0 -1 -2 -3 -4 -4 -3 -2 -1 -1 -1 -1 -1 -1 -1 -2 -3 -3 -2 -2 -2 -2 -2 -1 0 1 1 1
15 15 15 15 15 14 14 14 14 14 13 12 11 10 8 5 2 -0 -1 -2 -3 -4 -3 -2 -1 -1 -0 -1 -1 -1 -1 -1 -2 -3 -2 -2 -2 -2 -2 -2 -1 -0 1 1 1
15 14 14 14 14 14 14 13 13 13 13 12 10 9 7 6 3 1 -1 -2 -3 -3 -2 -1 -0 0 0 -0 -1 -1 -1 -1 -2 -3 -2 -1 -1 -2 -3 -2 -1 -1 -0 -0 0
14 14 13 13 12 12 12 12 12 12 12 11 9 8 7 7 5 2 0 -1 -2 -2 -2 -1 -0 1 1 -0 -0 -0 0 -1 -2 -2 -2 -1 -1 -2 -3 -2 -1 -1 -1 -1 -1
14 13 12 11 11 11 10 11 11 11 10 9 7 7 6 6 6 4 1 -0 -1 -1 -1 -1 -0 1 1 0 0 0 0 -0 -1 -2 -2 -1 -1 -2 -2 -2 -2 -1 -1 -1 -1
13 13 12 11 11 10 9 9 9 9 8 7 6 6 6 6 6 5 2 1 1 1 0 0 0 1 0 -0 -0 0 -0 -1 -1 -1 -1 -1 -2 -2 -2 -2 -2 -2 -1 -1 -1
13 13 12 11 11 10 9 7 6 7 6 6 5 5 5 5 6 5 3 2 2 3 2 1 0 -0 -0 -1 -1 -1 -1 -1 -0 -0 -0 -1 -2 -2 -2 -2 -2 -2 -2 -2 -2
13 13 12 11 11 10 8 7 6 6 5 5 5 5 5 5 5 4 4 3 3 3 2 1 -0 -1 -1 -1 -1 -1 -1 -1 -0 0 -0 -1 -1 -2 -2 -2 -2 -2 -2 -2 -2
13 13 12 11 10 9 8 7 6 6 5 5 5 5 5 4 4 4 4 3 3 2 1 -0 -1 -1 -0 -0 -1 -1 -1 -1 -0 -0 -0 -1 -1 -1 -1 -1 -2 -2 -3 -3 -2
13 13 12 11 9 8 7 6 6 5 4 4 4 4 4 4 3 3 3 3 2 1 -0 -1 -1 -1 -0 -0 -0 -0 -0 -0 -0 -0 -1 -1 -0 0 1 1 -0 -2 -2 -3 -3
12 12 12 10 8 6 6 6 5 4 2 2 3 4 4 3 2 3 3 3 2 0 -0 -0 -1 -0 0 0 0 0 1 1 1 0 -1 -1 -0 0 1 1 -0 -1 -2 -2 -2
11 11 11 9 7 6 6 5 4 2 1 1 2 3 2 2 2 2 3 2 2 1 0 -0 -0 0 0 1 1 1 1 1 1 0 -0 -1 -0 0 0 0 -0 -1 -0 -1 -1
10 10 9 8 6 6 5 4 2 1 0 0 1 1 1 0 1 1 2 2 1 0 -0 -0 -0 -0 0 0 0 -0 -0 -0 -0 -1 -1 -1 -0 0 0 -0 -0 0 1 0 -0
9 8 7 6 5 5 4 3 1 -0 -0 0 -0 -0 -0 -0 -0 0 0 0 -0 -0 -1 -1 -1 -0 -0 0 -0 -0 -1 -1 -1 -1 -1 -1 -1 0 0 -0 -0 0 0 0 -0
7 6 5 4 5 4 3 2 1 0 0 0 -0 -1 -1 -0 -0 -1 -1 -1 -0 0 -0 -1 -1 -0 -0 0 0 -0 -0 -1 -1 -1 -1 -1 -1 -0 0 0 -0 -1 -1 -2 -2
5 4 3 4 4 4 3 2 1 1 1 1 -0 -1 -1 -1 -0 -1 -1 -0 0 1 1 -0 -1 -0 -0 0 -0 -0 -0 -1 -1 -1 -1 -1 -0 0 0 0 -0 -2 -3 -4 -4
4 4 3 4 4 3 2 1 1 2 2 2 1 -0 -0 -1 -1 -1 -1 0 1 1 1 0 -0 -1 -1 -1 -0 -0 -0 -0 -1 -1 -1 -1 -0 0 0 -0 -1 -2 -4 -5 -5
4 4 3 4 4 2 1 1 2 2 2 2 2 1 1 0 -0 -0 -0 1 2 2 2 1 1 -0 -1 -1 -0 0 0 -0 -1 -1 -1 -1 -0 -0 -1 -1 -2 -3 -4 -5 -5
4 3 3 4 3 2 1 2 2 3 3 2 2 2 2 1 1 1 1 2 3 4 3 3 2 1 -0 -0 -0 -0 -0 -0 -0 -1 -1 -1 -0 0 -1 -2 -2 -3 -4 -4 -3
3 3 3 3 3 2 2 2 2 3 3 3 3 3 3 2 2 1 1 2 3 4 4 4 3 2 1 0 0 0 0 0 0 -0 -0 -0 -0 0 -0 -1 -2 -2 -3 -4 -4
3 3 4 3 3 3 3 3 3 3 3 3 3 3 3 3 2 1 1 2 3 4 4 4 3 3 2 2 1 1 1 1 1 1 1 1 0 0 -0 -1 -1 -1 -2 -4 -4
4 4 4 4 4 4 4 4 3 3 3 4 4 4 3 3 3 3 3 3 4 4 4 4 3 3 3 3 2 2 2 1 1 1 1 1 1 0 0 -0 0 -0 -2 -3 -4
4 4 4 4 4 4 4 4 3 3 4 4 4 4 4 4 4 4 4 4 4 4 4 4 4 3 3 3 3 2 1 1 1 1 1 1 0 0 -0 0 1 0 -1 -3 -3